Regional Weather Roundup
Issued by NWS State College, PA

Home | Current Version | Previous Version | Text Only | Print | Product List | Glossary On
Versions: 1 2 3 4 5 6 7 8 9 10 11 12 13 14 15 16 17 18 19 20 21 22 23 24 25 26 27 28 29 30 31 32 33 34 35 36 37 38 39 40 41 42 43 44 45 46 47 48 49 50
000
ASUS41 KCTP 222103
RWRCTP

REGIONAL WEATHER ROUNDUP
NATIONAL WEATHER SERVICE STATE COLLEGE PA
400 PM EST MON DEC 22 2014

Note: "fair" indicates few or no clouds below 12,000 feet with no
significant weather and/or obstructions to visibility.

* = STATION THAT DOES NOT REPORT PRECIPITATION /E.G. RAIN...SNOW...ETC/
    THUNDER OR FOG.

PAZ002>004-007>009-013>016-020>023-029>032-222200-
WESTERN PENNSYLVANIA

CITY           SKY/WX    TMP DP  RH WIND       PRES   REMARKS
ERIE           MOCLDY    42  27  55 E8        30.01F
MEADVILLE      PTCLDY    37  27  67 VRB5      29.99F
FRANKLIN*      PTCLDY    36  25  64 E10       30.02S
NEW CASTLE       N/A     40  30  67 CALM      30.01S
BEAVER COUNTY  CLEAR     41  30  65 E3        29.99S
BUTLER*        PTCLDY    41  28  60 E9        30.01S
PITTSBURGH INT MOCLDY    45  31  58 E6        29.97F
PITTSBURGH     PTCLDY    44  28  53 E9        29.97F
INDIANA*       CLEAR     37  28  70 SE12      30.07F
LATROBE        MOCLDY    39  30  70 E8        30.04S
WASHINGTON CO* NOT AVBL
$$

PAZ004>006-010>012-017>019-024>028-033>037-041-042-045-046-049>053-222200-
CENTRAL PENNSYLVANIA

CITY           SKY/WX    TMP DP  RH WIND       PRES   REMARKS
BRADFORD       CLOUDY    31  23  72 SE8       30.04S
DUBOIS         CLEAR     32  25  75 E14       30.03F
CLEARFIELD     PTCLDY    31  23  72 SE5       30.10F
JOHNSTOWN      CLOUDY    30  23  75 SE7       30.03S
ALTOONA        CLOUDY    32  24  72 E5        30.11S
STATE COLLEGE  CLOUDY    32  25  74 E8        30.13F
WILLIAMSPORT   CLOUDY    36  25  64 NE3       30.18F
SELINSGROVE    CLOUDY    35  26  69 CALM      30.19F
FT INDIANTOWN  NOT AVBL
CAPITAL CITY   CLOUDY    36  28  73 CALM      30.18F
HARRISBURG     CLOUDY    36  27  69 CALM      30.18F
YORK           CLOUDY    34  29  82 NE5       30.17F HAZE
$$

PAZ038>040-043-044-047-048-054-055-060>062-067>071-222200-
EASTERN PENNSYLVANIA

CITY           SKY/WX    TMP DP  RH WIND       PRES   REMARKS
SCRANTON       PTCLDY    40  28  62 S12       30.17R
MOUNT POCONO   FOG       32  31  96 E6        30.14F VSB<1/4
ALLENTOWN      CLOUDY    40  32  73 NE8       30.21S
QUAKERTOWN*    MOCLDY    39  34  81 E7        30.20S
READING        CLOUDY    41  30  65 NE6       30.18F
LANCASTER      CLOUDY    39  31  72 E6        30.17F
COATESVILLE    MOCLDY    39  34  81 E6        30.17F
POTTSTOWN      CLOUDY    41  33  73 E5        30.20S
BLUE BELL      MOCLDY    43  36  75 E7        30.19S
DOYLESTOWN     CLOUDY    38  36  92 CALM      30.19F
WILLOW GROVE   NOT AVBL
NORTH PHILA    CLOUDY    43  35  73 NE8       30.22S HAZE
PHILADELPHIA   CLOUDY    44  35  70 NE9       30.20F
$$


USA.gov is the U.S. government's official web portal to all federal, state and local government web resources and services.